User: anonymous   Login
Location: Unspecified
(0.0000°N, 0.0000°E)
Time: 03:25:02
(UTC+00:00)
Language:

FORMOSAT 3B - Orbit

View from above orbital plane
View from above orbital plane
View from above satellite
View from above satellite

Ground track
Ground track

The orbit data is extracted from the following two-line orbital elements,

1 29048U 06011B   24170.61625445  .00000504  00000-0  20916-3 0  9998
2 29048  71.9666 272.9405 0042484  17.7505 342.5104 14.30010277952657
Epoch (UTC): 18 June 2024 14:47:24
Eccentricity: 0.0042484
inclination: 71.9666°
perigee height: 761 km
apogee height: 822 km
right ascension of ascending node: 272.9405°
argument of perigee: 17.7505°
revolutions per day: 14.30010277
mean anomaly at epoch: 342.5104°
orbit number at epoch: 95265

The dashed part of the orbit path shows where the satellite is in the earth's shadow,  

DLR